GPS BIIR-11 (PRN 19)

Last updated on Mon Oct 27 2025 00:03:23 GMT+0000 (Coordinated Universal Time)

1 28190U 04009A 25299.07169808 -.00000012 00000+0 00000+0 0 9991 2 28190 55.0280 285.1397 0107912 166.7361 206.9989 2.00562703158256
UTC large
Height (km)
Speed (km/s)
/
Latitude / Longitude
Inclination (degrees)
Orbital Period (minutes)
Azimuth
Elevation
Range (km)
Doppler Factor

Next 0 passes for location: London (51.5072 / 0.1276)

Sorry there are no passes over London.